User: anonymous   Login
Location: Umburanas
(4.5000°S, 37.9667°W)
Time: 10:53:25
(UTC+00:00)
Language:

Cosmos 2322 Rocket - Orbit

View from above orbital plane
View from above orbital plane
View from above satellite
View from above satellite

Ground track
Ground track

The orbit data is extracted from the following two-line orbital elements,

1 23705U 95058B   20028.78136492 -.00000272  00000-0 -11541-3 0  9994
2 23705  71.0211 184.1011 0014927 279.6149  80.3287 14.15133393252378
Epoch (UTC): 28 January 2020 18:45:09
Eccentricity: 0.0014927
inclination: 71.0211°
perigee height: 831 km
apogee height: 852 km
right ascension of ascending node: 184.1011°
argument of perigee: 279.6149°
revolutions per day: 14.15133393
mean anomaly at epoch: 80.3287°
orbit number at epoch: 25237

The dashed part of the orbit path shows where the satellite is in the earth's shadow,  

DLR